[[{"header":{"parameterUnit":"m.s-1","parameterCategory":1,"la1":30.2991,"la2":30.254,"lo1":-89.0895,"lo2":-89.0444,"dx":0.0017,"dy":0.0017,"nx":28,"ny":28,"refTime":"2022-11-29T09:00:00:Z","depth":0,"parameterNumber":2,"parameterNumberName":"U-component_of_WINDS"},"data":[0,0,0,0,0,0,0,0,0,0,0,0,0,0,0,0,0,0,0,0,0,0,0,0,0,0,0,0,0,0,0,0,0,0,0,0,0,0,0,0,0,0,0,0,0,0,0,0,0,0,0,0,0,0,0,0,0,0,-2.1838,-2.1838,0,-2.1835,-2.1835,-2.1835,-2.179,-2.1789,-2.1788,-2.1787,-2.1784,-2.1784,-2.1785,0,0,0,0,0,0,0,0,0,0,0,0,0,-2.1805,-2.1806,-2.1838,-2.1838,-2.1838,-2.1835,-2.1835,-2.1835,-2.179,-2.1789,-2.1787,-2.1786,-2.1783,-2.1784,-2.1786,0,0,0,0,0,0,0,0,0,0,0,0,0,-2.1812,-2.1806,-2.1838,-2.1815,-2.1813,-2.1835,-2.1835,-2.1835,-2.179,-2.1789,-2.1787,-2.1785,-2.1783,-2.1784,-2.1786,-2.1829,0,0,-2.179,-2.1791,0,0,0,0,0,0,0,0,-2.1812,-2.1813,-2.1818,-2.1817,-2.1814,-2.1811,-2.1822,-2.1833,-2.1791,-2.1799,-2.1786,-2.1785,-2.1794,-2.1794,-2.1798,-2.1829,-2.1829,-2.179,-2.1791,-2.1792,-2.1792,0,0,0,0,0,0,0,-2.1811,-2.1813,-2.1836,-2.1819,-2.1816,-2.1805,-2.1804,-2.1824,-2.1806,-2.1798,-2.1795,-2.1795,-2.1793,-2.1796,-2.1797,-2.1829,-2.179,-2.1792,-2.1793,-2.1793,-2.1895,-2.1897,0,0,0,0,0,0,-2.1814,-2.1813,-2.1837,-2.1836,-2.1809,-2.1807,-2.1806,-2.1814,-2.1806,-2.1803,-2.1797,-2.1793,-2.1795,-2.1796,-2.1797,-2.1847,-2.1792,-2.1793,-2.1794,-2.1893,-2.1895,-2.1897,0,0,0,0,0,0,-2.1813,-2.1816,-2.1837,-2.1824,-2.1826,-2.1809,-2.1818,-2.1815,-2.1818,-2.1805,-2.1801,-2.1804,-2.1793,-2.1795,-2.1821,-2.1846,-2.1794,-2.1795,-2.1891,-2.1894,-2.1896,-2.1947,0,0,0,0,0,0,-2.1813,-2.1817,-2.1833,-2.1825,-2.1826,-2.1861,-2.182,-2.1816,-2.1821,-2.1816,-2.181,-2.1808,-2.1792,-2.1819,-2.1823,-2.1847,-2.1796,-2.1889,-2.1892,-2.1895,-2.1943,-2.1951,-2.1958,0,0,0,0,0,-2.1812,-2.1847,-2.1834,-2.1837,-2.1846,-2.1863,-2.1864,-2.1845,-2.1823,-2.1839,-2.183,-2.1808,-2.1843,-2.1822,-2.1826,-2.1851,-2.1887,-2.1891,-2.1895,-2.1939,-2.1949,-2.1957,0,0,0,0,0,0,-2.1859,-2.1846,-2.1831,-2.1865,-2.1865,-2.1855,-2.1875,-2.1856,-2.1863,-2.1858,-2.1835,-2.1834,-2.1864,-2.186,-2.1837,-2.1892,-2.1861,-2.1866,-2.1893,-2.1903,-2.191,-2.191,-2.1798,0,0,0,0,0,-2.1873,-2.1887,-2.1875,-2.1906,-2.1907,-2.1891,-2.1898,-2.1883,-2.1883,-2.1883,-2.1876,-2.1876,-2.1887,-2.1895,-2.1904,-2.1942,-2.194,-2.1961,-2.1969,-2.1975,-2.1979,-2.1999,-2.2008,-2.1911,-2.1911,-2.191,0,0,-2.1903,-2.1898,-2.1908,-2.1916,-2.1914,-2.1929,-2.1892,-2.1909,-2.192,-2.1885,-2.1909,-2.1905,-2.1903,-2.1936,-2.195,-2.1934,-2.2006,-2.198,-2.1985,-2.1986,-2.2004,-2.2013,-2.2021,-2.1913,-2.1913,-2.1912,0,0,-2.1965,-2.1962,-2.1988,-2.1987,-2.1985,-2.1975,-2.1981,-2.1974,-2.1969,-2.1993,-2.1967,-2.198,-2.1999,-2.1999,-2.2002,-2.2064,-2.2043,-2.2068,-2.2107,-2.2126,-2.2133,-2.214,-2.2162,-2.217,-2.2072,-2.2073,-2.2073,0,-2.2002,-2.2023,-2.2003,-2.2022,-2.2027,-2.1996,-2.2021,-2.2022,-2.2023,-2.2027,-2.2009,-2.2033,-2.203,-2.2061,-2.2076,-2.208,-2.2086,-2.2068,-2.2134,-2.2141,-2.2146,-2.2167,-2.2175,-2.2076,-2.2075,-2.2075,-2.2075,0,-2.2069,-2.2084,-2.2105,-2.2107,-2.2114,-2.2136,-2.2119,-2.2128,-2.2114,-2.2105,-2.2129,-2.2125,-2.2133,-2.2139,-2.2125,-2.2169,-2.2159,-2.2138,-2.2106,-2.2159,-2.2178,-2.2185,-2.208,-2.2079,-2.2078,-2.2077,0,0,-2.216,-2.215,-2.2158,-2.2159,-2.2155,-2.2166,-2.2187,-2.2195,-2.2203,-2.2205,-2.2222,-2.2239,-2.222,-2.2223,-2.2209,-2.2226,-2.2274,-2.2202,-2.2202,-2.2215,-2.2322,-2.2337,-2.2346,-2.2261,-2.2263,-2.2264,-2.2322,0,-2.2219,-2.2254,-2.2236,-2.2273,-2.2287,-2.2258,-2.2276,-2.2276,-2.2268,-2.2279,-2.227,-2.2283,-2.2257,-2.2258,-2.2274,-2.2265,-2.2295,-2.2261,-2.2276,-2.2277,-2.2276,-2.2356,-2.2372,-2.2427,-2.2329,-2.233,-2.2331,0,-2.2292,-2.2297,-2.2336,-2.2329,-2.2334,-2.2351,-2.2356,-2.2367,-2.2366,-2.2359,-2.2363,-2.2344,-2.2364,-2.2333,-2.236,-2.2337,-2.2343,-2.234,-2.2341,-2.2341,-2.2307,-2.2358,-2.2445,-2.2453,-2.2343,-2.2342,-2.2341,0,-2.2353,-2.237,-2.2395,-2.2397,-2.239,-2.2402,-2.24,-2.2397,-2.2402,-2.2407,-2.2411,-2.2418,-2.2422,-2.2428,-2.2412,-2.2391,-2.2441,-2.2409,-2.2436,-2.2436,-2.2447,-2.2446,-2.2535,-2.2452,-2.2452,-2.2452,-2.2451,0,-2.2421,-2.2445,-2.2423,-2.2438,-2.2465,-2.2445,-2.2471,-2.2466,-2.2464,-2.2478,-2.2453,-2.2467,-2.2445,-2.2457,-2.2445,-2.2469,-2.2471,-2.2466,-2.2462,-2.2467,-2.2468,-2.247,-2.2465,-2.2454,-2.2453,-2.2453,-2.2453,0,-2.2494,-2.248,-2.2505,-2.2496,-2.2494,-2.2514,-2.2507,-2.2521,-2.2511,-2.2529,-2.2532,-2.2518,-2.253,-2.2515,-2.2526,-2.2517,-2.255,-2.2541,-2.255,-2.2547,-2.2575,-2.2572,-2.2667,-2.2679,-2.2589,-2.259,-2.2591,0,-2.2537,-2.2555,-2.2548,-2.2556,-2.2555,-2.2567,-2.2573,-2.2554,-2.256,-2.2561,-2.2574,-2.2584,-2.2591,-2.2612,-2.2603,-2.2611,-2.2601,-2.2634,-2.2602,-2.2607,-2.2601,-2.26,-2.2601,-2.264,-2.2641,-2.2642,-2.2643,0,-2.2615,-2.2608,-2.2616,-2.2623,-2.263,-2.2634,-2.2637,-2.2644,-2.2624,-2.2633,-2.2645,-2.2651,-2.2662,-2.2672,-2.2677,-2.2675,-2.2656,-2.2653,-2.266,-2.2665,-2.2669,-2.2667,-2.2567,-2.2651,-2.265,-2.265,-2.2649,-2.2649,-2.2674,-2.2689,-2.2686,-2.2697,-2.2697,-2.27,-2.2712,-2.2704,-2.2714,-2.2721,-2.271,-2.2725,-2.2723,-2.2728,-2.2728,-2.274,-2.2725,-2.2735,-2.2737,-2.274,-2.2744,-2.2668,-2.2741,-2.274,-2.274,-2.274,-2.274,0,-2.2751,-2.2748,-2.2758,-2.2762,-2.277,-2.2752,-2.2753,-2.2762,-2.2775,-2.2775,-2.2782,-2.2796,-2.2806,-2.2797,-2.2805,-2.2816,-2.2808,-2.2819,-2.2818,-2.2817,-2.2756,-2.275,-2.2826,-2.2826,-2.2826,-2.2826,-2.2826,-2.2826,-2.2792,-2.2815,-2.2807,-2.2831,-2.2827,-2.2841,-2.2844,-2.2846,-2.2846,-2.2863,-2.2871,-2.2865,-2.2862,-2.2869,-2.2877,-2.2874,-2.2878,-2.2893,-2.2887,-2.283,-2.2822,-2.2813,-2.2807,-2.2894,-2.2894,-2.2947,-2.2947,-2.2947]},{"header":{"parameterUnit":"m.s-1","parameterCategory":1,"la1":30.2991,"la2":30.254,"lo1":-89.0895,"lo2":-89.0444,"dx":0.0017,"dy":0.0017,"nx":28,"ny":28,"refTime":"2022-11-29T09:00:00:Z","depth":0,"parameterNumber":3,"parameterNumberName":"V-component_of_WINDS"},"data":[0,0,0,0,0,0,0,0,0,0,0,0,0,0,0,0,0,0,0,0,0,0,0,0,0,0,0,0,0,0,0,0,0,0,0,0,0,0,0,0,0,0,0,0,0,0,0,0,0,0,0,0,0,0,0,0,0,0,0.2005,0.2005,0,0.2045,0.2045,0.2046,0.2021,0.202,0.2018,0.2017,0.206,0.2062,0.2064,0,0,0,0,0,0,0,0,0,0,0,0,0,0.1909,0.1911,0.2005,0.2005,0.2006,0.2045,0.2045,0.2046,0.2021,0.202,0.2018,0.2017,0.2059,0.2062,0.2064,0,0,0,0,0,0,0,0,0,0,0,0,0,0.195,0.1912,0.2005,0.1998,0.1998,0.2045,0.2045,0.2046,0.2021,0.2019,0.2018,0.2016,0.2058,0.2061,0.2065,0.2121,0,0,0.2075,0.2076,0,0,0,0,0,0,0,0,0.1948,0.1954,0.1998,0.1999,0.1998,0.2026,0.2027,0.2071,0.2022,0.2012,0.2017,0.2015,0.205,0.2054,0.2065,0.2123,0.2124,0.2075,0.2077,0.2079,0.208,0,0,0,0,0,0,0,0.1945,0.1952,0.2021,0.1999,0.1999,0.1994,0.1998,0.2035,0.2041,0.2013,0.2011,0.2016,0.205,0.2062,0.2066,0.2125,0.2075,0.2078,0.208,0.2081,0.2232,0.2234,0,0,0,0,0,0,0.1943,0.195,0.2019,0.2022,0.1968,0.1997,0.2001,0.2019,0.204,0.2042,0.2018,0.2015,0.2057,0.2062,0.2068,0.2136,0.2079,0.2082,0.2084,0.223,0.2233,0.2235,0,0,0,0,0,0,0.1941,0.1949,0.2018,0.1985,0.1994,0.2,0.2021,0.2021,0.2033,0.2044,0.2045,0.203,0.2056,0.2063,0.2108,0.2137,0.2083,0.2086,0.2228,0.2231,0.2234,0.2272,0,0,0,0,0,0,0.1938,0.1948,0.1969,0.1986,0.1995,0.2057,0.2022,0.2023,0.2039,0.2036,0.2055,0.2057,0.2055,0.2103,0.2111,0.2141,0.2089,0.2225,0.2229,0.2233,0.2268,0.2276,0.2283,0,0,0,0,0,0.1935,0.1978,0.197,0.1979,0.2021,0.2059,0.2064,0.2061,0.2041,0.2063,0.207,0.2056,0.2132,0.2108,0.2117,0.2148,0.2223,0.2228,0.2232,0.2265,0.2275,0.2283,0,0,0,0,0,0,0.1965,0.198,0.1972,0.2022,0.2039,0.2054,0.2081,0.2071,0.2095,0.2091,0.2087,0.2092,0.2139,0.2148,0.212,0.2204,0.2175,0.2181,0.2197,0.2206,0.2213,0.221,0.2092,0,0,0,0,0,0.1978,0.2006,0.2018,0.2061,0.207,0.2074,0.209,0.2087,0.2105,0.2112,0.2122,0.2141,0.2169,0.2188,0.2214,0.2269,0.2274,0.2295,0.2302,0.2308,0.2314,0.2346,0.2356,0.225,0.225,0.2249,0,0,0.2004,0.2016,0.2034,0.2068,0.2081,0.2111,0.2081,0.2114,0.2137,0.2117,0.2161,0.2169,0.2189,0.224,0.2263,0.2249,0.2344,0.2314,0.2318,0.2321,0.2351,0.2361,0.237,0.2253,0.2252,0.2252,0,0,0.2068,0.2079,0.2117,0.213,0.215,0.2153,0.2162,0.2179,0.2184,0.2227,0.2214,0.2241,0.2289,0.2305,0.2319,0.239,0.2379,0.2399,0.2437,0.2468,0.2476,0.2483,0.251,0.252,0.2404,0.2405,0.2405,0,0.2098,0.2143,0.2138,0.2172,0.2188,0.2172,0.2211,0.2225,0.2252,0.2264,0.2248,0.2309,0.2321,0.2377,0.2394,0.2405,0.2417,0.2397,0.2475,0.2482,0.2489,0.2515,0.2525,0.2407,0.2407,0.2406,0.2406,0,0.218,0.2211,0.2239,0.2267,0.2286,0.2322,0.2324,0.2344,0.2339,0.2344,0.2389,0.2404,0.2433,0.2446,0.2441,0.2501,0.2492,0.2475,0.2446,0.2502,0.2526,0.2536,0.241,0.241,0.2409,0.2408,0,0,0.2264,0.2289,0.2299,0.2312,0.2333,0.2358,0.2394,0.2423,0.2441,0.2461,0.2492,0.2534,0.2519,0.2536,0.2532,0.2559,0.2617,0.254,0.254,0.2555,0.2685,0.2699,0.271,0.2609,0.2611,0.2612,0.2684,0,0.233,0.2393,0.2391,0.245,0.248,0.2465,0.2497,0.2514,0.252,0.2546,0.2553,0.2583,0.256,0.257,0.2596,0.2604,0.2643,0.2599,0.2639,0.2641,0.2636,0.2722,0.2736,0.2803,0.2693,0.2695,0.2696,0,0.2416,0.2439,0.2501,0.2519,0.2532,0.256,0.2587,0.2613,0.2632,0.2634,0.2653,0.2646,0.2684,0.2653,0.2707,0.2677,0.2693,0.27,0.2702,0.2707,0.2673,0.2731,0.2824,0.2835,0.271,0.2709,0.2708,0,0.2473,0.2519,0.2563,0.2574,0.2596,0.2617,0.2627,0.2644,0.2663,0.2686,0.2698,0.2726,0.2742,0.2764,0.2765,0.2742,0.282,0.2789,0.2824,0.2824,0.2842,0.2841,0.2941,0.285,0.285,0.285,0.285,0,0.2548,0.2587,0.2589,0.2616,0.266,0.2657,0.2701,0.2709,0.2725,0.2755,0.2743,0.2771,0.277,0.2799,0.28,0.2845,0.2852,0.2856,0.2856,0.2858,0.2857,0.2869,0.2865,0.2853,0.2852,0.2851,0.2851,0,0.262,0.2622,0.2669,0.2686,0.2691,0.2723,0.2738,0.2764,0.2769,0.2806,0.2815,0.2822,0.2856,0.2859,0.2897,0.2898,0.2953,0.2947,0.2947,0.2946,0.2982,0.2979,0.3094,0.311,0.3007,0.3008,0.3009,0,0.2668,0.2698,0.2718,0.2736,0.2748,0.2778,0.2796,0.2794,0.2814,0.2839,0.2863,0.2895,0.2921,0.2975,0.2985,0.3014,0.301,0.3048,0.3015,0.3016,0.3013,0.3011,0.3015,0.3055,0.3057,0.3057,0.3058,0,0.2754,0.2754,0.278,0.2808,0.2831,0.2852,0.2873,0.2889,0.289,0.2913,0.2947,0.2967,0.3006,0.3039,0.3068,0.308,0.307,0.3069,0.3079,0.3082,0.3081,0.3083,0.2966,0.3066,0.3065,0.3065,0.3064,0.3064,0.2816,0.2843,0.2861,0.2892,0.2907,0.2927,0.2953,0.2961,0.2989,0.3021,0.3018,0.3056,0.3076,0.3114,0.3128,0.3158,0.3145,0.316,0.3163,0.3167,0.3172,0.3075,0.3163,0.3163,0.3163,0.3163,0.3163,0,0.2903,0.2914,0.2942,0.2971,0.2996,0.2984,0.3006,0.3027,0.3061,0.308,0.3106,0.3145,0.3177,0.3189,0.3221,0.3243,0.3239,0.3251,0.325,0.3253,0.3181,0.3169,0.3253,0.3253,0.3253,0.3253,0.3253,0.3253,0.2951,0.2996,0.2998,0.3051,0.3062,0.3099,0.3113,0.3131,0.3147,0.3192,0.3218,0.3225,0.3242,0.3275,0.3304,0.3307,0.332,0.3334,0.3335,0.3267,0.3258,0.3249,0.3239,0.3336,0.3336,0.3405,0.3406,0.3406]}]]